Location: Bagnara
(41.0500°N, 14.7833°E)
Time: 07:56:41
(UTC+00:00)

Cosmos 2026 Rocket - Pass Details

Date: 20 June 2021
Orbit: 939 x 1001 km, 82.9° (Epoch: 26 July)

Event Time Altitude Azimuth Distance (km) Brightness Sun altitude
Exits shadow 00:31:24 31° 156° (SSE) 1,656 4.8 -22.3°
Maximum altitude 00:34:20 57° 92° (E) 1,150 4.4 -22.1°
Drops below altitude 10° 00:40:32 10° 16° (NNE) 2,767 7.5 -21.6°
Sets 00:43:07 0° 12° (NNE) 3,726 8.5 -21.4°
